Time,TemperatureF,DewpointF,PressureIn,WindDirection,WindDirectionDegrees,WindSpeedMPH,WindSpeedGustMPH,Humidity,HourlyPrecipIn,Conditions,Clouds,dailyrainin,SolarRadiationWatts/m^2,SoftwareType,DateUTC
2013-03-03 00:11:00,43.8,42.0,30.22,NNE,16,0.0,-999.0,93,-99.99,,,0.00,0,weatherlink.com 1.10,2013-03-03 00:11:00,
2013-03-03 00:26:00,43.5,42.0,30.22,NNE,16,0.0,-999.0,93,-99.99,,,0.00,0,weatherlink.com 1.10,2013-03-03 00:26:00,
2013-03-03 00:41:00,43.1,41.0,30.22,NNE,16,0.0,-999.0,93,-99.99,,,0.00,0,weatherlink.com 1.10,2013-03-03 00:41:00,
2013-03-03 00:56:00,42.9,41.0,30.22,NNE,16,0.0,-999.0,93,-99.99,,,0.00,0,weatherlink.com 1.10,2013-03-03 00:56:00,
2013-03-03 01:11:00,42.8,41.0,30.22,NNE,16,0.0,-999.0,93,-99.99,,,0.00,0,weatherlink.com 1.10,2013-03-03 01:11:00,
2013-03-03 01:26:00,42.5,41.0,30.21,NNE,16,0.0,-999.0,93,-99.99,,,0.00,0,weatherlink.com 1.10,2013-03-03 01:26:00,
2013-03-03 01:41:00,42.4,41.0,30.21,NNE,16,0.0,-999.0,94,-99.99,,,0.00,0,weatherlink.com 1.10,2013-03-03 01:41:00,
2013-03-03 01:56:00,42.4,41.0,30.21,NNE,16,0.0,-999.0,94,-99.99,,,0.00,0,weatherlink.com 1.10,2013-03-03 01:56:00,
2013-03-03 02:11:00,42.3,41.0,30.20,NNE,16,0.0,-999.0,94,-99.99,,,0.00,0,weatherlink.com 1.10,2013-03-03 02:11:00,
2013-03-03 02:26:00,42.2,41.0,30.20,NNE,16,0.0,-999.0,94,-99.99,,,0.00,0,weatherlink.com 1.10,2013-03-03 02:26:00,
2013-03-03 02:41:00,42.2,41.0,30.20,NNE,16,0.0,-999.0,95,-99.99,,,0.00,0,weatherlink.com 1.10,2013-03-03 02:41:00,
2013-03-03 02:56:00,42.7,41.0,30.20,NNE,16,0.0,-999.0,95,-99.99,,,0.00,0,weatherlink.com 1.10,2013-03-03 02:56:00,
2013-03-03 03:11:00,42.9,42.0,30.19,NNE,16,0.0,-999.0,95,-99.99,,,0.00,0,weatherlink.com 1.10,2013-03-03 03:11:00,
2013-03-03 03:26:00,42.8,42.0,30.20,NNE,16,0.0,-999.0,95,-99.99,,,0.00,0,weatherlink.com 1.10,2013-03-03 03:26:00,
2013-03-03 03:41:00,42.6,41.0,30.19,NNE,16,0.0,-999.0,95,-99.99,,,0.00,0,weatherlink.com 1.10,2013-03-03 03:41:00,
2013-03-03 03:56:00,42.4,41.0,30.19,NNE,16,0.0,-999.0,95,-99.99,,,0.00,0,weatherlink.com 1.10,2013-03-03 03:56:00,
2013-03-03 04:11:00,42.4,41.0,30.19,NNE,16,0.0,-999.0,95,-99.99,,,0.00,0,weatherlink.com 1.10,2013-03-03 04:11:00,
2013-03-03 04:26:00,42.5,41.0,30.19,NNE,16,0.0,-999.0,95,-99.99,,,0.00,0,weatherlink.com 1.10,2013-03-03 04:26:00,
2013-03-03 04:41:00,42.2,41.0,30.19,NNE,16,0.0,-999.0,95,-99.99,,,0.00,0,weatherlink.com 1.10,2013-03-03 04:41:00,
2013-03-03 04:56:00,42.5,42.0,30.19,NNE,16,0.0,-999.0,96,-99.99,,,0.00,0,weatherlink.com 1.10,2013-03-03 04:56:00,
2013-03-03 05:11:00,42.7,42.0,30.19,NNE,16,0.0,-999.0,96,-99.99,,,0.00,0,weatherlink.com 1.10,2013-03-03 05:11:00,
2013-03-03 05:26:00,42.7,42.0,30.19,NNE,16,1.0,-999.0,96,-99.99,,,0.00,0,weatherlink.com 1.10,2013-03-03 05:26:00,
2013-03-03 05:41:00,42.7,42.0,30.18,NNE,16,0.0,-999.0,96,-99.99,,,0.00,0,weatherlink.com 1.10,2013-03-03 05:41:00,
2013-03-03 05:56:00,42.6,42.0,30.18,NNE,16,0.0,-999.0,96,-99.99,,,0.00,0,weatherlink.com 1.10,2013-03-03 05:56:00,
2013-03-03 06:11:00,42.5,42.0,30.18,NNE,16,0.0,-999.0,96,-99.99,,,0.00,0,weatherlink.com 1.10,2013-03-03 06:11:00,
2013-03-03 06:27:00,42.2,41.0,30.17,NNE,16,0.0,-999.0,96,-99.99,,,0.00,0,weatherlink.com 1.10,2013-03-03 06:27:00,
2013-03-03 06:42:00,42.8,42.0,30.17,SE,139,5.0,-999.0,96,-99.99,,,0.00,0,weatherlink.com 1.10,2013-03-03 06:42:00,
2013-03-03 06:57:00,42.6,42.0,30.18,SE,132,4.0,-999.0,96,-99.99,,,0.00,0,weatherlink.com 1.10,2013-03-03 06:57:00,
2013-03-03 07:12:00,42.6,42.0,30.18,SE,132,0.0,-999.0,96,-99.99,,,0.00,0,weatherlink.com 1.10,2013-03-03 07:12:00,
2013-03-03 07:27:00,42.5,42.0,30.18,SE,132,0.0,-999.0,96,-99.99,,,0.00,5,weatherlink.com 1.10,2013-03-03 07:27:00,
2013-03-03 07:42:00,42.7,42.0,30.18,SE,132,0.0,-999.0,96,-99.99,,,0.00,12,weatherlink.com 1.10,2013-03-03 07:42:00,
2013-03-03 07:57:00,42.8,42.0,30.18,SE,132,0.0,-999.0,96,-99.99,,,0.00,14,weatherlink.com 1.10,2013-03-03 07:57:00,
2013-03-03 08:12:00,42.9,42.0,30.18,SE,132,0.0,-999.0,97,-99.99,,,0.00,23,weatherlink.com 1.10,2013-03-03 08:12:00,
2013-03-03 08:27:00,43.2,42.0,30.18,SE,132,0.0,-999.0,97,-99.99,,,0.00,33,weatherlink.com 1.10,2013-03-03 08:27:00,
2013-03-03 08:42:00,43.3,42.0,30.18,SE,132,0.0,-999.0,96,-99.99,,,0.00,42,weatherlink.com 1.10,2013-03-03 08:42:00,
2013-03-03 08:57:00,43.3,42.0,30.18,SE,132,2.0,-999.0,96,-99.99,,,0.00,40,weatherlink.com 1.10,2013-03-03 08:57:00,
2013-03-03 09:12:00,43.4,42.0,30.18,SE,132,0.0,-999.0,96,-99.99,,,0.00,49,weatherlink.com 1.10,2013-03-03 09:12:00,
2013-03-03 09:27:00,43.4,42.0,30.18,SE,132,0.0,-999.0,96,-99.99,,,0.00,46,weatherlink.com 1.10,2013-03-03 09:27:00,
2013-03-03 09:42:00,43.4,42.0,30.18,SE,132,0.0,-999.0,96,-99.99,,,0.00,49,weatherlink.com 1.10,2013-03-03 09:42:00,
2013-03-03 09:57:00,43.5,42.0,30.18,SE,132,0.0,-999.0,95,-99.99,,,0.00,56,weatherlink.com 1.10,2013-03-03 09:57:00,
2013-03-03 10:12:00,43.7,42.0,30.18,SE,132,0.0,-999.0,95,-99.99,,,0.00,47,weatherlink.com 1.10,2013-03-03 10:12:00,
2013-03-03 10:27:00,43.8,42.0,30.18,SE,132,0.0,-999.0,94,-99.99,,,0.00,67,weatherlink.com 1.10,2013-03-03 10:27:00,
2013-03-03 10:42:00,44.2,43.0,30.18,SE,132,0.0,-999.0,94,-99.99,,,0.00,65,weatherlink.com 1.10,2013-03-03 10:42:00,
2013-03-03 10:57:00,44.6,43.0,30.18,South,179,0.0,-999.0,93,-99.99,,,0.00,84,weatherlink.com 1.10,2013-03-03 10:57:00,
2013-03-03 11:12:00,44.9,43.0,30.17,South,173,6.0,-999.0,92,-99.99,,,0.00,86,weatherlink.com 1.10,2013-03-03 11:12:00,
2013-03-03 11:27:00,45.3,43.0,30.17,South,182,0.0,-999.0,91,-99.99,,,0.00,97,weatherlink.com 1.10,2013-03-03 11:27:00,
2013-03-03 11:42:00,45.3,43.0,30.17,SSW,198,4.0,-999.0,90,-99.99,,,0.00,90,weatherlink.com 1.10,2013-03-03 11:42:00,
2013-03-03 11:57:00,45.3,43.0,30.17,South,186,4.0,-999.0,90,-99.99,,,0.00,72,weatherlink.com 1.10,2013-03-03 11:57:00,
2013-03-03 12:12:00,45.3,43.0,30.17,South,182,0.0,-999.0,90,-99.99,,,0.00,83,weatherlink.com 1.10,2013-03-03 12:12:00,
2013-03-03 12:27:00,45.5,43.0,30.16,South,184,1.0,-999.0,89,-99.99,,,0.00,95,weatherlink.com 1.10,2013-03-03 12:27:00,
2013-03-03 12:42:00,45.7,42.0,30.16,SSW,201,2.0,-999.0,88,-99.99,,,0.00,98,weatherlink.com 1.10,2013-03-03 12:42:00,
2013-03-03 12:57:00,45.7,42.0,30.15,SSW,201,2.0,-999.0,86,-99.99,,,0.00,102,weatherlink.com 1.10,2013-03-03 12:57:00,
2013-03-03 13:12:00,45.9,42.0,30.14,SSW,201,1.0,-999.0,85,-99.99,,,0.00,111,weatherlink.com 1.10,2013-03-03 13:12:00,
2013-03-03 13:27:00,46.1,42.0,30.14,SSW,201,2.0,-999.0,84,-99.99,,,0.00,105,weatherlink.com 1.10,2013-03-03 13:27:00,
2013-03-03 13:42:00,46.2,41.0,30.13,SSW,201,0.0,-999.0,83,-99.99,,,0.00,114,weatherlink.com 1.10,2013-03-03 13:42:00,
2013-03-03 13:57:00,46.4,42.0,30.13,SSW,201,3.0,-999.0,83,-99.99,,,0.00,97,weatherlink.com 1.10,2013-03-03 13:57:00,
2013-03-03 14:12:00,46.5,41.0,30.12,SSW,201,3.0,-999.0,82,-99.99,,,0.00,135,weatherlink.com 1.10,2013-03-03 14:12:00,
2013-03-03 14:27:00,46.5,41.0,30.12,SSW,198,5.0,-999.0,80,-99.99,,,0.00,98,weatherlink.com 1.10,2013-03-03 14:27:00,
2013-03-03 14:42:00,46.5,40.0,30.12,SW,229,3.0,-999.0,79,-99.99,,,0.00,88,weatherlink.com 1.10,2013-03-03 14:42:00,
2013-03-03 14:57:00,46.3,40.0,30.12,SSW,193,4.0,-999.0,79,-99.99,,,0.00,79,weatherlink.com 1.10,2013-03-03 14:57:00,
2013-03-03 15:12:00,46.2,40.0,30.11,SSW,194,0.0,-999.0,80,-99.99,,,0.00,72,weatherlink.com 1.10,2013-03-03 15:12:00,
2013-03-03 15:27:00,46.2,40.0,30.11,SSW,194,0.0,-999.0,79,-99.99,,,0.00,69,weatherlink.com 1.10,2013-03-03 15:27:00,
2013-03-03 15:43:00,46.2,40.0,30.11,SSW,198,4.0,-999.0,79,-99.99,,,0.00,47,weatherlink.com 1.10,2013-03-03 15:43:00,
2013-03-03 15:58:00,46.2,40.0,30.11,SSW,198,4.0,-999.0,79,-99.99,,,0.00,49,weatherlink.com 1.10,2013-03-03 15:58:00,
2013-03-03 16:13:00,46.1,40.0,30.10,SSW,198,3.0,-999.0,80,-99.99,,,0.00,40,weatherlink.com 1.10,2013-03-03 16:13:00,
2013-03-03 16:28:00,45.9,40.0,30.10,SSW,198,0.0,-999.0,81,-99.99,,,0.00,33,weatherlink.com 1.10,2013-03-03 16:28:00,
2013-03-03 16:43:00,45.7,40.0,30.09,SSW,198,2.0,-999.0,81,-99.99,,,0.00,25,weatherlink.com 1.10,2013-03-03 16:43:00,
2013-03-03 16:58:00,45.6,40.0,30.09,SSW,198,3.0,-999.0,81,-99.99,,,0.00,35,weatherlink.com 1.10,2013-03-03 16:58:00,
2013-03-03 17:13:00,45.5,40.0,30.09,SSW,198,1.0,-999.0,82,-99.99,,,0.00,23,weatherlink.com 1.10,2013-03-03 17:13:00,
2013-03-03 17:28:00,45.0,40.0,30.09,SSW,198,0.0,-999.0,82,-99.99,,,0.00,12,weatherlink.com 1.10,2013-03-03 17:28:00,
2013-03-03 17:43:00,44.6,39.0,30.09,SSW,198,0.0,-999.0,82,-99.99,,,0.00,7,weatherlink.com 1.10,2013-03-03 17:43:00,
2013-03-03 17:58:00,44.0,39.0,30.09,SSW,198,0.0,-999.0,83,-99.99,,,0.00,0,weatherlink.com 1.10,2013-03-03 17:58:00,
2013-03-03 18:13:00,43.5,39.0,30.09,SSW,198,0.0,-999.0,84,-99.99,,,0.00,0,weatherlink.com 1.10,2013-03-03 18:13:00,
2013-03-03 18:28:00,42.9,38.0,30.09,SSW,198,0.0,-999.0,84,-99.99,,,0.00,0,weatherlink.com 1.10,2013-03-03 18:28:00,
2013-03-03 18:43:00,42.3,38.0,30.08,SSW,198,0.0,-999.0,85,-99.99,,,0.00,0,weatherlink.com 1.10,2013-03-03 18:43:00,
2013-03-03 18:58:00,41.9,38.0,30.08,SSW,198,0.0,-999.0,86,-99.99,,,0.00,0,weatherlink.com 1.10,2013-03-03 18:58:00,
2013-03-03 19:13:00,41.6,38.0,30.08,SSW,198,0.0,-999.0,88,-99.99,,,0.00,0,weatherlink.com 1.10,2013-03-03 19:13:00,
2013-03-03 19:28:00,41.3,38.0,30.08,SSW,198,0.0,-999.0,88,-99.99,,,0.00,0,weatherlink.com 1.10,2013-03-03 19:28:00,
2013-03-03 19:43:00,40.5,37.0,30.07,SSW,198,0.0,-999.0,88,-99.99,,,0.00,0,weatherlink.com 1.10,2013-03-03 19:43:00,
2013-03-03 20:34:00,39.5,37.0,30.07,SSW,198,0.0,-999.0,91,-99.99,,,0.00,0,weatherlink.com 1.10,2013-03-03 20:34:00,
2013-03-03 20:45:00,39.3,37.0,30.07,SSW,198,0.0,-999.0,91,-99.99,,,0.00,0,weatherlink.com 1.10,2013-03-03 20:45:00,
2013-03-03 21:00:00,38.9,37.0,30.07,SSW,198,0.0,-999.0,91,-99.99,,,0.00,0,weatherlink.com 1.10,2013-03-03 21:00:00,
2013-03-03 21:15:00,39.8,37.0,30.08,SSW,198,2.0,-999.0,91,-99.99,,,0.00,0,weatherlink.com 1.10,2013-03-03 21:15:00,
2013-03-03 21:30:00,40.2,38.0,30.07,SSW,198,0.0,-999.0,90,-99.99,,,0.00,0,weatherlink.com 1.10,2013-03-03 21:30:00,
2013-03-03 21:45:00,40.2,37.0,30.07,SSW,198,0.0,-999.0,88,-99.99,,,0.00,0,weatherlink.com 1.10,2013-03-03 21:45:00,
2013-03-03 22:00:00,40.3,37.0,30.07,SSW,198,0.0,-999.0,88,-99.99,,,0.00,0,weatherlink.com 1.10,2013-03-03 22:00:00,
2013-03-03 22:15:00,40.2,37.0,30.06,SSW,198,0.0,-999.0,88,-99.99,,,0.00,0,weatherlink.com 1.10,2013-03-03 22:15:00,
2013-03-03 22:30:00,39.9,37.0,30.06,SSW,198,0.0,-999.0,88,-99.99,,,0.00,0,weatherlink.com 1.10,2013-03-03 22:30:00,
2013-03-03 23:00:00,39.8,37.0,30.05,SSW,198,0.0,-999.0,88,-99.99,,,0.00,0,weatherlink.com 1.10,2013-03-03 23:00:00,
2013-03-03 23:15:00,39.8,36.0,30.05,SSW,198,0.0,-999.0,87,-99.99,,,0.00,0,weatherlink.com 1.10,2013-03-03 23:15:00,
2013-03-03 23:30:00,39.2,36.0,30.05,SSW,198,0.0,-999.0,87,-99.99,,,0.00,0,weatherlink.com 1.10,2013-03-03 23:30:00,
2013-03-03 23:45:00,38.3,35.0,30.05,SSW,198,0.0,-999.0,88,-99.99,,,0.00,0,weatherlink.com 1.10,2013-03-03 23:45:00,